When you browse on this site, cookies collect data to enhance your experience and personalize the content and advertising you see.
Visit our Privacy Policy to learn more. By continuing to use the site, you agree to this use of cookies and data.
EN

Hourly Weather Kerns

Today, 10 July, Friday

Time Temperature Precipitation Wind Pressure Humidity
00:00 +22°C° 0.2 mm 5 mps 762 mmHg 98%
01:00 +22°C° 0.2 mm 6 mps 762 mmHg 97%
02:00 +22°C° 0.3 mm 6 mps 761 mmHg 97%
03:00 +22°C° 0.3 mm 6 mps 761 mmHg 96%
04:00 +22°C° 0.3 mm 6 mps 761 mmHg 96%
05:00 +22°C° 0.2 mm 6 mps 761 mmHg 96%
06:00 +22°C° 0.2 mm 6 mps 761 mmHg 96%
07:00 +21°C° 0.2 mm 6 mps 762 mmHg 96%
08:00 +22°C° 0.2 mm 6 mps 762 mmHg 90%
09:00 +23°C° 0.2 mm 6 mps 763 mmHg 84%
10:00 +24°C° 0.2 mm 6 mps 763 mmHg 78%
11:00 +26°C° 0 mm 6 mps 763 mmHg 72%
12:00 +27°C° 0 mm 6 mps 762 mmHg 65%
13:00 +28°C° 0 mm 6 mps 761 mmHg 59%
14:00 +28°C° 0 mm 6 mps 761 mmHg 59%
15:00 +27°C° 0 mm 5 mps 761 mmHg 60%
16:00 +27°C° 0 mm 5 mps 760 mmHg 60%
17:00 +25°C° 0 mm 5 mps 761 mmHg 71%
18:00 +23°C° 0 mm 5 mps 761 mmHg 81%
19:00 +21°C° 0 mm 4 mps 762 mmHg 92%
20:00 +21°C° 0 mm 4 mps 762 mmHg 93%
21:00 +20°C° 0 mm 4 mps 762 mmHg 94%
22:00 +20°C° 0 mm 4 mps 762 mmHg 95%
23:00 +20°C° 0 mm 4 mps 762 mmHg 95%

Tomorrow, 11 July, Saturday

Time Temperature Precipitation Wind Pressure Humidity
00:00 +20°C° 0 mm 4 mps 762 mmHg 96%
01:00 +20°C° 0 mm 4 mps 761 mmHg 96%
02:00 +20°C° 0 mm 4 mps 761 mmHg 96%
03:00 +20°C° 0 mm 4 mps 761 mmHg 96%
04:00 +20°C° 0 mm 3 mps 760 mmHg 97%
05:00 +20°C° 0 mm 3 mps 761 mmHg 97%
06:00 +20°C° 0 mm 3 mps 761 mmHg 97%
07:00 +20°C° 0 mm 3 mps 761 mmHg 97%
08:00 +22°C° 0.1 mm 4 mps 761 mmHg 89%
09:00 +25°C° 0.1 mm 4 mps 761 mmHg 81%
10:00 +27°C° 0.1 mm 4 mps 761 mmHg 72%
11:00 +27°C° 0 mm 4 mps 761 mmHg 68%
12:00 +28°C° 0 mm 4 mps 760 mmHg 64%
13:00 +29°C° 0 mm 4 mps 760 mmHg 60%
14:00 +29°C° 0 mm 4 mps 759 mmHg 63%
15:00 +28°C° 0 mm 4 mps 759 mmHg 66%
16:00 +28°C° 0 mm 4 mps 759 mmHg 69%
17:00 +26°C° 0 mm 4 mps 759 mmHg 78%
18:00 +23°C° 0 mm 4 mps 759 mmHg 87%
19:00 +22°C° 0 mm 3 mps 759 mmHg 95%
20:00 +21°C° 0 mm 3 mps 760 mmHg 96%
21:00 +21°C° 0 mm 3 mps 760 mmHg 96%
22:00 +21°C° 0 mm 3 mps 760 mmHg 96%
23:00 +21°C° 0 mm 3 mps 760 mmHg 96%

Day after tomorrow, 12 July, Sunday

Time Temperature Precipitation Wind Pressure Humidity
00:00 +21°C° 0 mm 2 mps 760 mmHg 96%
01:00 +21°C° 0 mm 2 mps 760 mmHg 96%
02:00 +21°C° 0.1 mm 2 mps 759 mmHg 96%
03:00 +21°C° 0.1 mm 2 mps 759 mmHg 96%
04:00 +21°C° 0.1 mm 2 mps 759 mmHg 96%
05:00 +21°C° 0.1 mm 2 mps 759 mmHg 96%
06:00 +21°C° 0.1 mm 2 mps 759 mmHg 97%
07:00 +21°C° 0.1 mm 2 mps 760 mmHg 97%
08:00 +24°C° 0.2 mm 3 mps 760 mmHg 93%
09:00 +25°C° 0.2 mm 3 mps 760 mmHg 88%
10:00 +26°C° 0.2 mm 3 mps 760 mmHg 84%
11:00 +27°C° 0.2 mm 3 mps 760 mmHg 82%
12:00 +27°C° 0.2 mm 3 mps 759 mmHg 80%
13:00 +27°C° 0.2 mm 3 mps 759 mmHg 78%
14:00 +27°C° 0.1 mm 3 mps 759 mmHg 78%
15:00 +27°C° 0.1 mm 3 mps 759 mmHg 79%
16:00 +27°C° 0.1 mm 3 mps 758 mmHg 79%
17:00 +26°C° 0.1 mm 3 mps 759 mmHg 84%
18:00 +25°C° 0.1 mm 3 mps 759 mmHg 89%
19:00 +24°C° 0.1 mm 3 mps 759 mmHg 95%
20:00 +22°C° 0 mm 3 mps 760 mmHg 95%
21:00 +22°C° 0 mm 3 mps 760 mmHg 96%
22:00 +22°C° 0 mm 3 mps 761 mmHg 97%
23:00 +22°C° 0 mm 3 mps 760 mmHg 96%

13 July, Monday

Time Temperature Precipitation Wind Pressure Humidity
00:00 +22°C° 0 mm 3 mps 760 mmHg 96%
01:00 +22°C° 0 mm 3 mps 760 mmHg 95%
02:00 +22°C° 0 mm 3 mps 760 mmHg 95%
03:00 +22°C° 0 mm 3 mps 760 mmHg 94%
04:00 +22°C° 0 mm 3 mps 759 mmHg 94%
05:00 +22°C° 0 mm 3 mps 760 mmHg 93%
06:00 +22°C° 0 mm 4 mps 760 mmHg 93%
07:00 +22°C° 0 mm 4 mps 761 mmHg 93%
08:00 +23°C° 0.1 mm 4 mps 761 mmHg 91%
09:00 +25°C° 0.1 mm 4 mps 762 mmHg 89%
10:00 +25°C° 0.1 mm 5 mps 762 mmHg 86%
11:00 +25°C° 0 mm 5 mps 762 mmHg 85%
12:00 +26°C° 0 mm 5 mps 761 mmHg 83%
13:00 +26°C° 0 mm 5 mps 760 mmHg 82%
14:00 +26°C° 0 mm 5 mps 760 mmHg 78%
15:00 +27°C° 0 mm 5 mps 760 mmHg 73%
16:00 +27°C° 0 mm 5 mps 760 mmHg 69%
17:00 +26°C° 0 mm 5 mps 760 mmHg 75%
18:00 +23°C° 0 mm 5 mps 761 mmHg 81%
19:00 +21°C° 0 mm 4 mps 761 mmHg 87%
20:00 +21°C° 0 mm 4 mps 761 mmHg 86%
21:00 +21°C° 0 mm 4 mps 762 mmHg 85%
22:00 +20°C° 0 mm 4 mps 762 mmHg 84%
23:00 +20°C° 0 mm 4 mps 762 mmHg 84%

14 July, Tuesday

Time Temperature Precipitation Wind Pressure Humidity
00:00 +20°C° 0 mm 5 mps 762 mmHg 83%
01:00 +20°C° 0 mm 5 mps 762 mmHg 83%
02:00 +20°C° 0 mm 5 mps 761 mmHg 86%
03:00 +20°C° 0 mm 5 mps 761 mmHg 89%
04:00 +19°C° 0 mm 5 mps 761 mmHg 92%
05:00 +19°C° 0 mm 5 mps 761 mmHg 88%
06:00 +19°C° 0 mm 6 mps 762 mmHg 85%
07:00 +19°C° 0 mm 6 mps 762 mmHg 81%
08:00 +21°C° 0 mm 6 mps 762 mmHg 71%
09:00 +23°C° 0 mm 6 mps 763 mmHg 62%
10:00 +24°C° 0 mm 6 mps 763 mmHg 52%
11:00 +26°C° 0 mm 6 mps 762 mmHg 52%
12:00 +27°C° 0 mm 7 mps 761 mmHg 52%
13:00 +28°C° 0 mm 7 mps 761 mmHg 52%
14:00 +27°C° 0 mm 6 mps 760 mmHg 53%
15:00 +27°C° 0 mm 6 mps 760 mmHg 55%
16:00 +27°C° 0 mm 6 mps 760 mmHg 56%
17:00 +25°C° 0 mm 5 mps 760 mmHg 62%
18:00 +22°C° 0 mm 5 mps 761 mmHg 68%
19:00 +20°C° 0 mm 5 mps 761 mmHg 74%
20:00 +19°C° 0 mm 5 mps 761 mmHg 75%
21:00 +19°C° 0 mm 4 mps 762 mmHg 76%
22:00 +18°C° 0 mm 4 mps 762 mmHg 77%
23:00 +19°C° 0 mm 4 mps 762 mmHg 77%

15 July, Wednesday

Time Temperature Precipitation Wind Pressure Humidity
00:00 +19°C° 0 mm 4 mps 762 mmHg 76%
01:00 +19°C° 0 mm 4 mps 762 mmHg 76%
02:00 +18°C° 0 mm 4 mps 761 mmHg 77%
03:00 +18°C° 0 mm 4 mps 761 mmHg 78%
04:00 +17°C° 0 mm 5 mps 761 mmHg 79%
05:00 +16°C° 0 mm 5 mps 761 mmHg 81%
06:00 +16°C° 0 mm 5 mps 761 mmHg 82%
07:00 +17°C° 0 mm 4 mps 762 mmHg 83%
08:00 +19°C° 0 mm 4 mps 762 mmHg 74%
09:00 +22°C° 0 mm 4 mps 762 mmHg 65%
10:00 +25°C° 0 mm 4 mps 762 mmHg 56%
11:00 +26°C° 0 mm 5 mps 761 mmHg 52%
12:00 +27°C° 0 mm 5 mps 761 mmHg 48%
13:00 +28°C° 0 mm 5 mps 760 mmHg 44%
14:00 +27°C° 0 mm 5 mps 759 mmHg 46%
15:00 +27°C° 0 mm 5 mps 759 mmHg 47%
16:00 +26°C° 0 mm 5 mps 759 mmHg 49%
17:00 +23°C° 0 mm 5 mps 759 mmHg 56%
18:00 +21°C° 0 mm 4 mps 760 mmHg 64%
19:00 +18°C° 0 mm 4 mps 760 mmHg 72%
20:00 +17°C° 0 mm 4 mps 760 mmHg 73%
21:00 +17°C° 0 mm 4 mps 761 mmHg 74%
22:00 +16°C° 0 mm 3 mps 761 mmHg 75%
23:00 +16°C° 0 mm 3 mps 761 mmHg 74%
Show more